Theta_e
332 332 331 332 332 331 330 330 331 331 331 329 328 327 326 326 326 326 326 327 328 329 329 329 329 330 331 331 332 331 332 332 332 332 332 333 335 341 341 342 342 341 340 339 337 335 335 337 337 337 335 333 333 332 332 332 331 331 330 330 329 329 328 328 328 328 327 328 327 326 326 326 326 327 327 326 326 325 326 325 325 325 325 325 325
331 330 332 331 331 332 330 331 332 331 329 328 328 327 327 327 326 326 327 327 329 330 329 329 329 330 331 331 331 332 332 332 332 332 332 334 335 339 340 341 340 340 339 337 335 334 334 339 338 337 335 334 333 333 333 332 332 332 332 331 330 329 328 328 328 328 327 326 327 327 326 327 327 327 326 326 326 326 325 325 325 324 325 324 324
331 331 331 330 330 331 331 329 329 328 328 328 328 328 327 326 326 326 326 327 328 329 330 329 329 330 331 331 331 332 332 332 332 333 333 333 334 335 340 341 341 341 340 340 337 335 334 337 339 337 336 335 335 334 334 333 333 333 333 331 330 330 329 329 328 327 328 327 326 326 326 326 327 326 326 326 326 325 325 325 325 325 324 325 324
331 330 329 328 328 329 329 328 328 328 328 328 328 328 329 329 328 327 327 327 327 328 329 329 328 329 330 330 331 331 331 331 332 332 333 332 332 333 335 338 341 341 341 342 341 336 334 336 338 338 336 336 336 335 334 333 333 334 333 332 331 331 330 330 329 327 326 327 327 327 327 326 325 325 325 324 325 325 325 324 325 324 324 324 324
330 331 331 327 328 328 328 328 329 330 328 328 329 329 329 328 327 328 327 327 328 327 329 329 328 329 330 330 331 331 331 332 332 332 332 331 332 333 333 334 336 339 340 341 340 340 339 339 336 336 337 337 336 336 335 334 334 335 333 332 332 331 331 331 329 327 327 328 327 327 327 327 326 324 324 324 324 324 324 324 324 323 324 324 323
331 330 329 328 327 329 330 330 331 330 329 328 328 327 327 327 327 328 329 326 326 326 327 327 328 329 330 330 330 330 331 331 331 331 331 331 331 332 333 333 333 333 334 338 338 337 337 337 336 336 336 336 335 336 336 336 335 335 335 334 333 332 331 331 331 329 328 328 327 327 327 326 325 324 324 323 324 324 324 323 323 323 323 323 323
331 330 329 329 328 329 331 332 331 330 328 327 328 326 326 326 326 325 325 326 326 327 327 327 328 327 328 329 329 329 330 330 331 331 331 330 331 330 331 332 333 332 332 334 336 336 337 335 336 337 334 335 335 336 336 336 336 336 335 335 334 333 333 332 332 331 330 328 327 327 327 327 326 325 324 324 324 323 323 324 323 323 323 323 322
330 329 328 328 327 329 331 332 331 329 327 327 327 325 325 326 326 326 325 325 326 325 326 327 327 326 326 327 326 329 328 329 329 330 329 329 329 329 330 331 333 335 333 331 333 336 336 336 335 335 334 333 334 334 335 336 336 336 334 334 333 334 334 334 333 332 331 330 329 329 329 327 327 326 325 324 324 324 323 323 323 323 323 322 322
329 328 327 326 327 329 331 331 330 327 326 325 325 325 326 325 325 327 326 325 326 326 326 326 326 327 326 326 326 327 327 327 327 328 328 328 328 328 328 332 335 333 330 329 329 332 336 337 336 336 335 334 333 333 336 337 337 336 336 335 335 334 334 334 333 333 332 332 331 330 329 329 328 328 327 326 325 325 324 323 322 322 323 322 322
328 327 326 327 328 329 330 330 329 326 325 325 325 324 324 326 324 325 327 327 326 326 325 326 327 326 326 326 326 326 326 327 329 330 327 327 327 327 327 328 329 328 329 328 328 329 331 332 332 333 333 334 335 336 337 337 337 336 335 335 334 334 334 331 333 333 333 332 332 332 331 330 329 329 329 327 325 326 325 324 324 323 322 322 322
328 328 327 331 329 330 330 329 328 326 325 324 324 325 324 324 325 325 327 328 327 326 326 327 326 326 325 326 327 326 327 328 326 326 327 328 332 329 327 327 328 329 329 329 330 330 330 328 327 327 330 330 331 331 332 334 336 337 335 336 336 335 334 333 333 331 332 333 332 333 333 331 330 330 330 329 328 327 326 325 324 324 323 322 322
329 328 328 329 329 329 329 329 328 326 324 324 324 324 324 324 325 326 326 327 328 327 326 325 325 325 324 325 326 326 326 326 326 326 326 327 327 326 326 328 329 330 329 330 330 329 328 327 326 325 324 324 325 327 328 329 331 334 336 336 336 335 335 333 334 334 333 332 332 331 332 330 330 331 331 331 330 329 328 327 326 325 324 324 323
332 330 329 332 329 329 328 328 328 326 325 324 324 323 324 325 325 326 326 325 325 325 325 326 323 320 321 321 321 324 327 326 326 326 325 325 325 325 326 328 329 330 330 331 330 330 328 326 325 323 321 321 319 320 324 327 329 331 334 336 336 336 335 334 333 333 332 332 333 332 331 331 331 331 331 331 331 331 329 328 326 326 325 325 325
332 330 329 329 327 328 328 328 328 325 324 324 324 327 325 325 325 324 323 325 323 325 325 325 319 318 318 316 319 320 322 320 322 324 325 325 324 325 326 327 328 329 330 330 330 327 326 324 323 321 319 317 317 317 320 324 328 330 333 334 335 335 336 335 335 335 333 333 333 331 330 330 330 331 332 332 331 331 331 331 329 327 326 326 326
331 331 329 327 326 327 327 328 327 327 325 325 326 324 324 325 325 325 323 324 324 325 324 322 320 319 319 317 313 313 316 316 316 317 322 323 325 326 326 327 327 328 329 329 329 328 325 321 319 318 317 316 316 316 318 322 327 330 331 333 335 335 337 336 336 335 334 334 333 333 331 330 329 330 330 330 330 330 330 330 331 330 328 327 326
331 330 328 327 326 326 328 328 327 327 326 325 325 324 323 324 324 325 325 322 321 322 324 321 321 319 315 313 313 311 310 311 312 314 319 321 324 324 326 326 326 327 328 328 327 324 317 316 315 315 315 314 314 315 317 320 323 325 330 331 333 336 336 335 336 334 334 333 334 334 332 331 331 330 330 329 329 328 329 330 330 330 330 329 328
330 329 328 327 327 327 327 328 328 326 327 326 325 324 324 324 325 325 325 324 319 317 321 322 322 321 318 313 312 312 308 312 311 312 315 319 323 325 325 325 325 326 327 326 322 317 315 314 313 312 312 311 311 313 316 317 319 323 324 330 331 332 333 333 337 337 336 334 335 334 332 332 331 331 332 332 332 331 331 331 331 330 329 328 330
328 326 328 327 327 327 328 328 328 327 326 326 326 325 324 324 324 326 324 325 324 320 320 322 321 321 320 320 317 313 312 312 311 308 315 316 319 321 322 323 324 325 326 323 317 315 316 313 312 311 311 310 310 311 313 317 320 320 322 324 325 325 324 332 333 334 334 333 333 332 331 330 328 327 327 328 330 331 331 331 331 330 331 329 329
327 325 325 326 326 327 328 328 328 326 327 325 325 325 325 325 324 324 324 324 324 322 321 321 321 322 320 320 322 318 317 313 308 309 310 313 314 316 319 323 324 324 322 319 316 314 313 312 310 309 309 309 309 310 310 312 316 319 320 320 321 321 319 321 329 330 330 330 329 328 327 326 325 323 323 324 325 326 327 328 329 330 330 330 331
324 324 323 325 325 324 326 327 327 326 326 326 326 326 326 326 325 324 324 325 324 322 320 322 322 321 320 318 318 317 315 313 315 315 312 310 311 316 318 320 320 319 317 315 313 312 311 311 309 308 308 308 308 308 309 310 311 314 317 317 319 319 318 317 316 322 326 326 326 325 324 322 322 320 319 319 319 320 322 324 325 327 328 328 329
321 322 322 323 327 324 324 325 326 327 328 325 325 326 327 325 324 323 323 323 323 323 323 322 321 319 317 316 315 314 313 314 312 313 311 310 310 313 313 318 318 314 313 312 311 311 311 311 311 308 310 308 308 308 308 309 310 312 314 316 316 316 316 315 312 312 315 321 320 320 319 319 318 319 318 317 318 318 318 319 321 322 324 325 326
318 319 321 323 325 324 323 324 324 326 327 325 325 325 325 325 324 324 323 322 322 323 323 322 320 320 321 318 314 312 313 313 311 312 312 313 312 312 315 315 313 312 313 311 308 307 306 307 307 306 306 307 308 308 309 311 311 311 312 314 314 313 312 312 310 311 315 318 319 320 320 319 319 318 317 317 317 317 317 318 319 320 321 322 323
316 316 317 317 320 324 322 322 323 328 326 325 325 325 325 325 323 323 323 322 321 322 321 320 321 321 320 320 316 315 313 312 311 312 312 310 310 310 311 312 314 312 310 310 309 306 305 306 306 305 306 307 307 308 310 312 313 312 313 313 313 312 311 308 307 307 313 317 319 319 318 319 318 317 316 316 316 315 315 317 317 318 320 322 321
314 315 316 317 319 319 321 321 323 324 323 324 325 325 324 323 322 322 322 321 321 321 320 320 320 321 321 320 317 316 315 315 313 314 314 313 313 311 309 308 308 306 307 309 308 307 306 305 305 305 305 307 308 310 310 308 312 312 311 312 312 312 311 309 305 304 305 309 314 317 317 317 316 317 317 316 316 315 315 315 314 313 315 319 322
315 316 315 316 317 316 318 320 322 322 322 321 322 323 323 323 322 322 321 321 321 321 320 320 321 321 321 320 318 316 315 314 314 313 313 313 312 310 305 307 307 305 307 306 307 307 307 307 307 305 305 306 306 306 308 308 311 312 310 310 310 309 308 310 310 305 303 304 308 313 316 316 316 316 315 314 314 314 314 313 310 308 308 309 314
315 315 315 316 315 317 318 318 319 319 320 320 320 321 322 323 322 321 321 321 320 319 320 319 320 321 321 319 318 317 315 314 313 313 312 312 311 311 306 305 306 305 302 304 304 306 306 308 308 307 307 306 306 306 307 307 308 312 310 307 309 307 307 307 309 310 306 305 306 308 312 313 313 313 313 312 310 309 311 309 308 306 305 305 306
315 315 316 314 315 315 317 317 318 319 319 320 321 320 321 322 322 321 319 319 320 319 318 319 319 319 319 320 318 317 315 312 312 313 314 314 312 310 309 306 303 303 303 301 302 304 306 307 307 308 309 311 310 308 307 307 310 311 307 305 307 308 306 306 308 308 308 305 304 304 305 306 308 309 308 308 308 308 309 309 308 306 306 306 307
314 315 315 314 313 315 316 316 317 318 319 318 319 319 319 319 318 317 316 317 317 317 317 318 319 319 319 318 319 317 315 313 312 313 314 314 313 312 313 311 307 303 300 304 303 302 304 307 307 308 308 309 309 307 309 310 307 311 308 306 305 306 307 305 306 307 305 304 302 301 301 302 303 305 305 306 309 308 308 307 307 306 306 307 307
315 314 312 310 311 313 315 314 315 315 316 316 316 316 316 316 313 312 312 312 315 314 314 317 317 317 316 318 320 317 314 314 312 313 313 312 312 312 313 312 311 305 301 302 303 302 306 304 306 308 308 308 309 308 308 307 308 310 307 305 304 305 308 305 303 303 303 302 302 302 300 301 303 304 307 307 307 307 306 304 304 305 306 307 306
315 315 311 312 313 316 312 312 312 314 314 314 314 313 312 311 310 310 310 310 310 310 311 312 312 313 312 313 315 316 313 315 312 312 312 312 310 311 311 311 311 308 304 304 305 302 307 305 304 307 306 307 307 308 307 306 309 310 306 303 305 304 307 305 303 301 301 302 302 300 301 301 301 303 306 306 306 304 304 304 303 304 306 307 306
314 311 310 309 310 310 310 310 311 311 311 311 311 311 311 310 311 310 309 310 309 309 309 310 310 311 310 310 309 312 311 315 313 311 312 311 309 308 307 308 308 310 308 306 304 305 306 308 306 304 308 308 307 308 307 307 307 310 307 306 303 305 307 306 303 302 303 302 300 301 304 304 303 302 303 304 305 305 305 305 303 305 307 305 304
310 309 309 308 309 309 309 309 309 309 309 309 309 310 310 309 310 309 309 309 309 309 308 309 309 309 309 309 309 309 310 313 312 311 310 310 309 307 307 307 304 306 307 305 305 306 304 308 308 305 305 309 307 307 308 306 307 310 308 306 305 307 306 307 303 303 302 302 301 301 303 303 302 302 303 303 303 302 303 302 302 305 305 303 302
309 308 307 307 307 308 309 310 309 309 308 308 309 309 310 309 309 309 308 308 308 308 310 309 309 309 309 308 307 308 310 312 312 310 309 308 308 308 306 305 304 305 306 304 303 303 305 305 305 304 304 308 307 307 307 307 307 309 309 308 307 306 305 305 304 303 301 301 301 301 301 300 300 302 300 299 300 301 302 301 301 302 300 301 301
308 308 307 308 307 307 307 307 307 307 307 308 307 308 309 309 309 309 308 308 308 307 308 308 308 308 307 307 307 308 309 310 310 309 309 308 307 306 305 305 304 304 305 303 302 304 305 305 306 303 304 307 308 307 309 307 307 307 308 309 307 305 304 304 302 302 299 302 301 301 301 300 300 301 300 300 300 301 302 301 300 300 300 299 297
308 307 307 306 307 307 306 306 306 306 307 307 307 308 308 309 309 308 308 308 308 308 308 307 307 307 308 308 307 307 308 309 309 309 309 308 308 307 306 305 304 304 303 304 304 303 304 304 306 303 304 305 308 306 306 308 307 305 306 308 308 306 305 302 301 299 298 299 300 300 300 301 301 301 300 300 300 300 300 300 300 300 299 299 298
307 307 306 306 306 306 306 306 305 306 306 306 306 306 307 308 308 308 307 307 307 307 308 307 306 307 307 307 306 307 308 308 307 308 308 309 309 308 307 305 305 303 305 305 306 304 304 304 304 303 302 304 305 302 302 304 304 302 302 302 304 305 303 302 301 300 299 299 300 300 301 301 301 301 300 300 300 300 300 299 299 299 299 298 298
306 307 307 305 305 305 306 306 306 306 306 306 306 306 306 306 307 307 307 307 307 306 307 306 309 306 307 308 306 306 307 307 307 307 307 308 307 308 307 305 305 305 306 306 305 304 304 304 305 303 303 302 303 303 302 302 302 303 303 302 303 303 302 303 302 302 302 301 300 301 300 300 301 301 300 300 300 300 299 299 299 299 299 299 299
306 306 305 306 306 304 305 305 306 306 306 305 306 306 306 306 306 306 307 307 307 307 306 307 307 306 307 306 306 307 307 308 308 307 307 307 306 307 306 305 305 306 306 305 305 305 304 304 304 303 304 304 304 306 304 303 304 304 305 305 305 304 305 306 305 303 304 304 306 305 302 301 301 300 300 300 299 299 299 299 298 298 298 298 298
307 307 305 306 307 305 305 305 306 306 305 305 305 305 306 306 306 306 306 306 306 306 306 306 307 306 306 306 306 306 307 308 308 308 307 307 308 307 307 307 305 306 306 305 304 304 304 303 302 304 304 303 305 306 304 302 305 305 306 305 306 303 304 305 304 304 305 304 301 299 300 300 301 301 300 299 299 299 299 299 298 298 297 297 296
308 307 306 306 306 305 305 305 306 307 305 305 304 306 306 306 307 306 306 307 307 306 306 306 306 306 306 306 306 307 307 308 309 308 308 308 308 307 307 307 307 307 306 305 305 304 303 303 303 303 303 303 304 304 303 304 305 305 305 305 304 304 304 303 305 305 304 304 303 302 300 300 300 299 298 299 299 299 299 299 300 299 298 296 296
310 308 308 307 307 306 305 305 306 307 306 306 306 307 307 306 306 307 306 307 307 307 306 306 306 306 306 306 306 306 310 312 307 307 307 308 309 308 306 308 307 307 306 306 306 304 303 303 303 303 303 303 303 304 303 302 303 304 306 304 305 303 302 303 302 303 302 302 301 300 301 302 300 301 300 301 301 300 299 299 299 299 297 296 296
309 308 307 308 307 307 307 306 306 307 307 307 309 306 306 307 306 306 307 307 307 307 308 307 307 306 307 307 310 313 311 310 307 303 302 303 307 310 309 308 308 307 307 306 305 305 305 303 303 303 303 302 303 303 304 304 304 304 303 304 303 300 301 302 302 304 302 302 302 300 299 301 300 299 299 299 299 300 300 300 300 299 297 296 296
308 308 306 306 305 305 306 306 306 306 307 308 301 299 298 301 305 306 307 307 307 308 308 307 308 308 308 308 308 311 313 312 310 302 300 299 299 301 303 304 308 310 307 306 306 306 305 305 305 303 304 304 304 304 304 304 302 305 305 305 303 300 302 301 300 302 302 301 300 300 299 299 300 298 297 298 299 300 299 300 297 297 296 296 296
310 311 310 309 308 306 304 305 305 305 306 303 297 297 298 298 299 306 306 307 307 307 308 308 308 308 308 308 309 309 310 311 310 309 304 299 298 299 299 299 300 301 302 308 308 305 305 306 305 305 305 304 305 304 303 302 302 302 302 303 302 302 301 301 301 300 300 300 300 299 297 298 298 298 298 297 298 299 298 298 296 296 296 296 296
306 306 306 307 308 309 309 308 308 307 307 297 293 293 294 295 296 300 306 307 308 308 307 308 309 309 309 309 309 309 310 312 314 311 309 308 300 299 299 299 298 298 297 295 297 308 308 308 307 306 305 306 305 304 305 304 303 303 300 301 301 302 302 302 299 298 298 299 299 298 297 297 297 298 297 297 299 299 299 297 296 296 296 296 296
301 301 302 302 303 305 307 307 307 308 307 298 295 294 294 294 294 297 304 306 307 308 308 308 309 310 310 310 310 310 310 311 311 309 308 307 305 305 304 304 305 300 295 295 295 296 302 309 308 308 308 306 307 307 305 303 304 302 301 302 300 300 299 300 298 297 296 297 300 297 296 296 295 297 296 297 297 299 299 297 295 296 296 295 295
297 298 299 299 300 301 302 303 304 304 303 294 294 294 294 294 294 297 302 304 305 306 308 309 309 310 310 310 310 311 311 310 310 308 308 307 306 306 305 304 303 303 302 302 302 303 305 306 308 308 309 307 308 307 304 302 304 305 305 305 301 300 296 295 296 297 297 296 297 299 296 296 293 296 296 298 296 296 298 295 295 295 295 295 294
296 297 297 298 297 298 299 300 301 301 301 293 293 293 294 294 296 305 304 304 304 305 306 308 309 310 310 310 310 311 311 311 306 300 303 307 306 306 306 305 303 301 300 298 294 295 301 305 307 308 309 309 303 308 306 304 302 301 299 298 298 297 297 297 295 295 295 295 295 296 295 295 293 294 296 296 295 296 297 297 295 294 295 295 294
295 295 295 295 296 297 297 298 298 299 299 295 293 293 293 294 298 304 306 306 306 306 307 308 308 309 310 311 311 311 311 311 304 299 297 300 307 307 307 307 306 303 302 299 293 292 292 293 295 296 297 296 296 297 296 296 298 299 299 298 297 297 296 295 293 294 294 294 295 296 295 294 293 294 294 295 295 295 296 297 297 294 294 294 294
295 294 295 294 294 295 295 296 298 296 297 296 292 292 292 293 297 302 304 305 306 307 308 309 309 309 310 308 311 312 311 311 302 298 295 301 308 308 308 307 307 305 304 299 298 296 292 291 291 291 291 292 293 293 293 293 293 297 300 298 296 297 297 296 294 294 293 294 295 296 296 293 292 291 293 293 293 293 294 295 296 296 294 294 293
294 294 295 293 293 293 294 295 297 295 295 295 293 291 292 292 296 300 302 303 304 305 306 308 309 308 309 307 306 306 309 307 299 297 294 300 310 309 309 308 307 307 308 301 298 297 297 297 296 297 296 296 298 298 297 293 294 297 301 300 297 299 296 295 293 292 292 293 294 295 294 292 292 291 291 291 290 293 292 293 295 296 296 296 296
Wind_Speed
5 4 4 4 4 4 3 3 3 2 2 3 2 4 4 4 4 4 4 5 5 6 5 5 5 5 6 6 5 4 4 3 4 4 3 3 4 7 9 8 8 8 7 8 7 6 5 8 8 9 9 8 8 9 8 8 7 7 7 7 7 7 7 7 7 8 8 8 8 7 8 8 8 9 9 9 9 9 8 9 10 10 11 11 11
4 4 5 4 4 4 4 3 2 1 2 3 1 3 4 4 4 5 5 5 5 4 5 6 5 5 5 5 5 4 3 4 5 4 3 4 4 5 9 8 6 6 6 7 6 6 6 10 7 8 9 9 8 8 8 7 7 7 7 7 6 6 6 6 6 7 7 7 7 7 7 7 8 8 7 8 9 8 8 9 9 10 10 10 9
4 4 4 5 4 3 3 2 2 1 1 2 0 2 3 4 4 5 5 5 5 4 5 6 5 5 5 6 5 4 4 5 5 4 4 3 4 4 6 8 7 6 5 5 5 5 6 7 8 8 8 8 8 7 6 6 6 6 6 5 6 6 6 6 5 5 6 6 6 6 6 7 7 7 8 8 8 8 8 8 9 9 10 10 9
4 4 5 5 4 3 2 2 2 1 1 2 2 2 4 4 5 5 5 5 5 5 4 6 6 5 5 6 4 4 5 5 5 4 4 4 4 4 5 6 9 10 11 10 5 4 5 7 7 7 7 7 7 6 5 4 3 4 4 4 4 5 4 5 5 5 5 5 5 5 5 6 5 6 6 6 7 8 7 7 8 8 9 9 9
4 5 5 5 4 3 2 2 2 2 2 3 4 3 4 5 5 5 6 5 6 5 5 5 6 6 6 5 4 5 6 5 4 4 4 4 4 4 5 5 5 10 12 11 13 10 11 11 6 5 5 6 6 4 3 3 1 2 4 4 3 3 3 4 5 5 4 5 5 5 5 5 5 4 4 5 5 6 6 7 7 6 7 8 8
5 4 4 4 4 3 3 2 2 2 2 3 4 3 4 5 5 5 5 5 5 4 5 6 5 5 5 5 5 6 5 6 4 4 3 4 4 4 4 4 5 5 6 11 12 11 10 10 8 9 8 11 7 6 6 3 2 0 1 4 4 2 1 3 4 4 4 4 4 3 4 4 4 4 4 4 4 4 5 5 5 6 6 7 7
3 4 4 4 4 4 3 2 2 2 2 2 4 3 4 5 4 6 5 5 5 3 4 6 7 6 4 3 4 7 5 6 5 4 4 3 4 4 5 5 5 5 5 5 8 9 8 7 8 11 10 8 3 4 5 4 2 3 3 2 2 2 2 1 2 2 2 2 3 4 4 4 4 4 4 3 3 3 3 4 4 4 5 5 6
4 4 4 4 4 4 3 2 3 3 3 3 4 4 4 5 4 5 7 4 5 4 4 6 5 7 6 5 3 5 5 5 5 3 3 4 4 4 4 5 5 6 6 5 5 6 9 10 10 12 10 5 1 3 3 2 1 3 1 4 2 0 2 2 2 3 2 3 4 4 4 4 4 4 5 4 3 3 3 3 3 4 4 4 4
4 4 4 4 4 4 4 4 4 4 4 4 4 3 5 5 4 3 4 5 5 5 5 6 6 5 4 4 2 4 5 4 4 3 3 4 3 3 4 5 6 7 5 5 5 5 9 13 13 12 10 5 3 2 3 4 4 4 4 2 2 3 5 3 2 2 3 5 6 5 5 4 4 4 5 4 3 3 3 2 3 3 2 3 4
4 4 4 4 4 4 4 4 4 4 4 4 3 3 4 5 5 4 4 5 5 6 7 6 6 5 5 5 5 5 4 3 3 4 3 3 4 5 4 5 6 5 5 5 5 5 5 8 11 11 10 8 8 9 9 8 7 6 5 5 2 2 3 2 4 6 6 5 5 5 6 7 6 5 4 4 4 4 4 3 2 3 1 1 1
4 3 4 4 4 4 4 4 4 4 5 4 4 4 4 4 6 6 5 3 5 5 6 7 6 6 5 5 5 5 4 3 3 3 3 3 4 5 5 6 6 5 5 6 5 5 5 5 5 4 6 11 10 11 12 12 11 10 9 4 4 2 2 2 3 2 3 3 4 6 5 3 6 6 5 5 5 5 5 4 3 3 3 1 1
3 3 3 4 4 4 4 4 4 5 5 5 4 4 5 6 6 8 8 5 4 5 6 7 7 7 7 5 5 4 4 3 4 4 3 4 4 4 6 6 6 5 5 6 6 6 5 5 5 5 4 7 11 11 12 12 11 11 10 9 6 3 3 2 2 2 3 2 3 4 5 2 5 7 7 7 6 5 5 4 4 3 4 4 3
4 4 3 4 3 4 4 4 4 4 5 5 4 4 4 5 6 5 8 7 4 5 5 7 8 6 5 5 4 3 4 5 5 5 4 4 4 6 6 7 7 6 5 4 6 5 5 4 4 4 4 3 5 9 11 12 12 11 10 10 10 7 5 5 2 1 1 2 3 3 1 2 6 9 9 9 7 6 4 4 4 4 4 5 5
5 4 3 3 4 4 5 5 4 4 4 4 4 4 5 6 6 6 3 6 4 4 6 7 3 4 6 4 4 5 5 6 7 6 5 5 5 6 6 6 6 6 6 6 6 6 5 4 4 5 4 4 4 4 4 6 9 12 11 10 9 7 6 7 7 5 4 5 6 5 4 4 5 5 9 9 6 6 5 4 6 6 5 5 6
4 5 5 4 4 4 5 4 4 5 5 5 5 5 5 6 6 7 6 3 4 2 1 3 4 3 3 6 3 4 4 5 5 7 5 5 6 7 6 6 6 6 5 5 6 4 4 4 4 4 4 4 4 4 4 5 8 12 11 11 10 10 9 9 10 10 9 9 10 10 8 6 5 8 6 6 6 5 4 5 4 7 5 6 7
5 5 4 5 5 5 5 6 5 5 6 6 5 5 5 5 5 6 8 8 3 1 2 1 4 7 3 2 3 4 5 4 6 5 4 6 7 6 6 6 6 6 5 6 6 5 4 4 4 4 4 4 4 3 4 4 8 9 12 12 12 14 13 13 13 14 14 13 13 14 12 12 10 7 4 1 3 2 3 4 6 5 4 7 8
5 5 4 5 4 4 5 5 6 5 5 6 6 6 5 5 6 6 8 9 6 3 2 1 4 2 6 5 3 1 2 4 5 5 5 6 7 6 6 7 6 5 5 5 5 4 3 4 4 4 4 4 4 4 4 5 5 5 7 11 12 11 12 14 13 15 14 15 16 16 17 17 17 17 17 14 11 8 6 6 6 4 3 5 6
3 3 4 4 4 4 4 5 5 5 5 6 6 5 5 6 6 6 6 3 7 6 3 2 1 2 1 1 4 5 7 4 3 3 4 5 4 6 6 7 6 6 5 4 4 3 3 4 4 4 4 4 4 4 4 5 5 5 5 7 13 14 11 12 15 16 17 18 18 18 18 18 17 17 17 17 17 16 16 14 14 14 12 5 6
3 3 3 3 4 4 5 5 5 5 4 5 6 6 6 5 4 5 4 4 5 6 7 5 2 1 1 1 2 2 8 8 3 6 5 3 5 4 6 7 6 6 5 4 4 3 4 3 4 4 4 4 4 4 4 5 8 9 12 12 12 12 15 15 15 17 17 17 17 17 17 17 18 18 18 18 18 17 17 16 16 16 16 15 16
3 3 3 3 4 4 4 4 5 4 5 5 5 5 5 4 4 3 5 5 5 7 5 6 7 3 2 3 5 6 5 5 6 7 7 7 3 4 6 6 6 5 4 4 4 4 4 4 4 4 4 4 4 4 5 5 6 7 6 12 12 13 15 15 15 14 16 17 17 17 17 16 17 17 17 17 17 17 17 17 17 17 17 17 18
2 3 3 3 3 4 4 4 5 5 5 5 4 5 7 7 6 5 6 5 4 5 6 7 4 3 3 5 6 5 5 5 5 5 5 7 4 4 3 4 6 5 4 3 4 4 3 4 4 4 4 4 4 4 4 5 6 6 7 9 10 12 13 13 13 14 13 16 17 17 16 16 16 16 16 16 15 15 15 15 16 16 16 16 16
3 2 3 3 4 4 4 5 4 5 4 5 5 5 5 6 7 7 6 6 4 5 6 4 4 6 4 4 4 3 4 3 4 5 6 4 8 8 6 8 5 2 4 5 5 4 3 4 4 4 4 3 3 4 5 6 5 5 7 11 11 10 10 12 11 12 12 13 16 16 16 16 16 16 16 17 17 17 16 16 16 15 15 15 15
2 2 2 2 3 4 4 4 4 4 5 5 6 6 6 6 5 5 6 7 5 5 4 6 5 6 6 6 6 8 7 5 7 4 6 5 7 6 4 3 5 5 3 3 3 3 3 4 4 3 3 3 3 4 5 5 5 6 10 9 10 11 10 10 11 12 11 11 12 14 16 16 16 17 17 17 17 17 17 17 17 17 17 16 15
2 2 3 3 3 3 4 4 5 5 5 5 5 6 5 5 5 5 5 5 5 5 5 6 6 5 6 5 6 5 4 5 6 6 8 7 9 8 6 4 4 2 0 1 2 3 3 3 2 2 1 2 3 3 4 4 5 9 6 9 8 8 9 9 10 11 11 11 11 13 16 17 17 16 16 17 16 16 16 16 16 16 17 16 16
1 3 2 2 2 4 5 5 5 5 4 4 4 5 6 5 5 5 5 6 6 6 6 7 7 7 7 5 4 4 4 3 6 6 5 7 10 9 2 3 4 2 1 1 0 1 1 2 1 1 1 2 3 3 3 4 4 7 6 5 8 7 9 9 9 10 10 11 11 11 13 15 15 15 14 14 15 14 14 13 12 11 13 14 15
4 3 2 2 2 2 2 3 2 2 2 2 3 4 5 5 5 6 6 5 5 6 5 6 5 5 5 5 5 4 4 5 6 7 8 8 8 10 7 4 3 4 0 1 1 2 0 0 1 1 0 2 2 2 3 3 3 5 6 4 6 8 8 9 9 7 9 9 10 11 10 11 12 12 12 12 12 11 11 10 9 11 12 12 13
4 2 2 3 4 4 4 5 4 4 3 3 3 3 3 3 3 3 3 4 5 5 4 6 5 5 5 5 4 3 4 6 6 7 8 9 10 9 10 9 4 2 1 1 1 0 2 1 1 1 1 0 1 1 2 2 2 4 4 3 3 6 7 8 8 8 7 8 8 8 9 9 8 8 9 8 8 8 8 8 9 10 10 10 11
2 3 2 3 4 5 5 5 5 5 4 4 4 4 4 4 3 3 4 2 4 5 4 5 6 6 6 4 4 4 4 5 5 6 6 7 8 8 9 10 10 4 1 1 1 2 1 2 1 2 3 3 2 1 1 2 1 2 3 2 2 3 5 6 6 6 7 7 7 7 7 7 7 7 7 7 6 6 7 7 7 7 8 8 9
4 2 3 3 4 5 5 5 5 5 5 5 5 5 5 4 4 5 4 4 4 5 4 5 4 5 5 6 5 4 4 4 4 5 5 6 7 8 9 10 8 9 5 4 4 4 3 3 4 4 3 3 3 2 2 1 1 1 1 1 1 2 3 5 6 6 6 6 6 6 6 6 7 7 7 7 6 6 5 5 5 5 5 6 7
4 3 3 4 4 4 5 4 4 5 5 5 5 5 5 5 4 4 4 5 5 4 3 4 5 5 4 4 4 5 4 5 5 6 6 7 7 7 5 4 8 10 6 7 6 5 3 3 2 3 3 4 3 2 2 1 1 2 1 1 0 1 2 3 4 5 5 5 6 6 5 5 4 5 5 5 5 4 3 3 3 3 3 4 5
5 4 4 4 4 4 4 4 4 5 5 5 5 5 5 6 4 4 3 4 5 5 3 4 4 5 6 5 4 4 5 5 5 5 5 6 6 5 5 5 4 7 9 5 4 5 4 6 6 4 4 5 2 2 1 1 2 3 2 2 1 1 1 2 2 3 4 4 5 5 5 4 4 4 5 5 6 6 5 3 2 1 1 1 2
4 3 4 4 4 5 4 4 5 5 5 4 4 5 5 5 4 5 4 5 5 5 4 4 3 4 6 6 5 5 5 5 5 5 6 5 6 6 6 6 5 5 6 6 6 7 6 6 5 5 4 4 3 4 3 1 2 4 3 3 2 2 1 0 1 2 2 3 4 4 4 3 4 5 6 6 7 8 8 7 5 3 1 1 1
4 4 4 4 4 5 5 4 5 5 5 4 4 4 5 5 5 5 5 5 6 4 5 5 4 5 5 5 4 4 5 7 6 5 6 6 5 4 5 6 5 5 6 4 5 4 2 2 2 3 2 4 3 4 4 3 3 2 2 2 2 2 2 1 1 2 3 3 3 4 3 4 5 7 7 7 7 7 7 8 7 5 4 3 3
3 5 4 3 4 5 5 5 5 5 5 5 4 4 6 6 5 3 5 5 5 5 4 5 4 4 4 5 5 5 4 6 6 7 7 6 6 6 6 6 6 6 5 4 3 5 7 3 4 1 2 3 5 3 6 5 5 2 3 3 2 2 2 2 0 1 1 2 2 2 2 4 8 7 7 7 8 8 8 8 7 7 5 3 4
2 3 4 4 4 4 5 5 5 5 5 5 4 5 5 6 6 4 4 4 5 5 4 4 5 4 5 4 5 5 4 6 5 4 5 6 6 7 7 5 6 6 6 4 5 3 6 6 3 4 4 3 5 4 4 3 3 3 4 3 2 0 1 1 0 1 1 2 2 2 1 6 5 7 8 8 8 8 7 8 8 7 7 5 2
5 3 3 4 4 4 5 4 4 4 4 4 4 4 4 5 6 6 5 4 4 4 5 5 4 4 6 5 4 5 5 6 5 6 5 6 6 6 6 5 5 7 6 5 4 5 5 6 5 6 4 5 5 1 2 3 3 3 2 1 1 2 1 1 2 2 3 4 4 3 4 5 9 10 9 7 6 6 7 8 8 9 9 9 7
3 4 3 3 4 4 5 5 4 4 4 5 5 4 4 3 5 5 5 5 4 4 4 4 4 5 4 4 5 5 6 6 5 5 5 6 5 5 6 6 5 4 4 5 4 4 6 7 5 3 3 3 1 2 4 4 2 2 1 1 1 2 1 0 1 0 3 5 6 9 9 10 10 9 6 5 6 7 8 9 9 10 10 10 9
3 3 4 2 3 4 4 4 3 4 4 4 4 5 5 5 4 4 4 5 4 4 3 3 4 5 5 5 5 5 6 7 6 5 5 6 5 5 5 5 5 5 5 5 4 4 6 6 6 4 3 4 3 3 3 4 4 3 1 2 2 2 2 3 3 2 2 3 4 6 6 7 9 7 6 6 8 9 9 9 10 11 11 11 11
5 4 3 4 2 4 3 3 3 3 3 3 2 3 4 5 5 5 4 4 4 3 2 1 1 1 1 3 4 4 4 4 6 6 6 5 5 6 6 6 6 6 6 5 4 5 5 5 2 2 4 1 2 4 1 2 2 3 5 3 1 2 1 4 4 2 2 5 6 7 6 6 6 5 6 8 8 8 8 8 9 10 10 10 10
3 3 3 3 3 3 3 3 3 3 3 3 3 3 3 4 4 4 4 3 3 2 1 1 1 1 1 1 1 2 3 4 5 5 5 5 4 4 3 4 5 6 6 5 5 4 4 4 4 4 4 4 2 1 2 3 3 2 3 4 6 4 3 2 1 4 1 3 5 4 4 5 5 5 6 8 8 7 6 8 9 9 9 10 10
1 1 1 2 2 2 2 2 2 2 3 3 4 4 5 5 4 5 4 4 3 2 2 2 1 1 0 1 1 2 3 3 3 3 5 6 7 5 4 5 5 5 5 5 5 5 4 4 4 0 4 4 4 5 4 5 7 8 5 3 3 2 3 4 2 2 1 3 2 3 3 2 4 3 2 3 3 4 6 5 6 7 9 9 9
1 0 1 1 2 3 2 1 1 1 2 3 2 4 3 4 6 4 4 4 4 4 3 2 3 3 3 3 3 3 4 3 4 4 4 5 5 4 7 7 7 6 6 5 5 5 5 5 6 6 5 6 6 7 7 6 4 3 4 5 6 3 4 3 1 1 1 2 3 4 3 1 2 3 2 3 2 2 2 3 3 4 6 7 6
5 4 4 4 3 1 1 1 0 2 2 4 6 5 5 5 1 3 4 4 4 4 4 4 4 4 4 4 4 3 4 3 4 5 6 5 4 3 4 9 9 9 8 6 6 6 6 6 4 4 6 7 7 6 7 5 4 7 7 7 7 6 7 7 6 1 1 1 2 3 2 2 1 3 2 2 1 1 1 3 4 6 6 4 3
6 6 7 5 6 5 3 2 2 3 3 6 7 5 3 2 3 3 3 1 2 3 4 5 4 4 5 5 4 4 4 5 5 5 5 5 4 3 1 3 3 2 0 4 6 5 6 6 5 7 6 7 6 5 5 4 5 4 4 7 8 10 8 8 6 5 2 0 3 3 3 1 1 3 3 1 1 1 2 3 3 3 2 2 2
6 8 6 8 8 7 7 7 7 7 8 13 13 13 11 8 4 2 2 2 3 3 3 4 4 5 4 5 5 4 4 5 5 5 5 5 5 4 3 3 3 4 3 4 4 6 6 6 6 6 8 6 5 7 8 6 5 7 5 6 6 7 7 7 4 3 2 0 4 3 3 1 1 1 3 1 1 1 1 2 2 3 3 3 4
8 8 8 9 8 9 8 7 8 9 10 13 14 14 12 11 9 4 3 3 3 4 4 5 5 5 5 5 5 6 4 4 5 5 5 5 5 5 5 5 5 5 4 6 8 9 8 7 6 7 5 5 5 1 1 4 7 7 6 6 5 6 6 5 4 4 2 1 4 4 2 2 1 1 2 1 0 0 1 1 3 3 5 5 5
8 8 8 8 8 8 9 8 8 10 10 16 16 16 14 12 10 6 5 4 4 5 5 4 5 5 6 5 5 6 6 5 4 5 5 6 6 6 6 6 6 6 5 5 5 5 5 6 7 8 4 5 6 5 6 7 5 5 7 6 8 6 6 5 4 3 3 3 2 2 3 2 1 0 0 1 0 1 2 2 4 5 6 6 6
5 5 7 8 9 9 9 9 9 10 10 16 16 17 16 15 10 6 6 5 5 5 6 6 6 5 5 5 5 6 6 7 6 6 7 4 5 6 7 7 6 5 4 1 2 2 2 5 7 7 6 9 8 8 9 8 6 5 6 6 7 6 7 5 3 1 3 2 2 2 2 1 1 1 1 1 0 2 1 2 2 5 6 6 6
7 7 6 7 7 8 9 9 9 8 9 13 15 16 16 16 12 8 8 7 6 6 6 7 6 5 5 5 6 6 7 8 9 9 10 9 6 7 7 8 6 4 6 2 1 1 4 6 5 5 6 9 10 11 11 12 11 10 8 7 6 6 6 5 1 1 2 2 2 2 2 1 1 1 2 2 2 2 2 2 1 3 5 6 7
7 6 5 6 7 8 9 9 8 8 7 9 13 13 14 14 10 7 6 6 7 7 7 7 6 6 7 8 7 6 7 8 9 9 10 10 8 9 8 9 8 8 8 4 2 2 5 6 7 9 9 8 7 7 9 10 12 10 10 9 8 6 6 5 5 3 1 0 0 0 2 1 1 0 1 3 3 2 2 2 2 3 4 4 6
6 5 6 7 7 8 7 7 10 9 7 8 11 11 12 11 9 6 6 5 6 6 7 8 7 5 6 6 7 8 7 9 10 8 11 10 9 9 10 8 9 9 9 7 6 4 3 4 4 6 6 6 7 8 7 8 6 2 5 8 7 7 6 4 5 4 2 2 2 2 2 1 2 1 1 3 2 2 1 1 2 2 2 2 3
Wind_Direction
120 122 112 106 107 89 93 88 79 73 77 61 96 105 78 86 87 90 90 91 90 96 100 95 117 123 124 115 110 122 141 111 82 75 68 65 62 73 77 85 101 115 122 113 94 98 110 101 109 114 109 104 99 95 97 100 100 98 91 84 83 85 85 83 75 70 69 67 68 68 60 56 57 60 60 60 61 58 58 53 50 54 53 50 50
125 128 123 107 92 86 81 84 106 100 109 113 34 117 126 103 89 83 89 90 90 102 108 108 107 109 107 110 112 132 124 98 79 71 65 54 53 62 77 80 95 115 104 87 85 63 86 118 115 114 110 111 109 111 106 103 100 102 102 94 91 89 86 86 86 87 80 73 68 66 63 58 55 56 55 58 59 57 62 58 50 54 55 53 52
133 126 103 100 91 93 85 83 108 124 150 118 95 119 86 84 88 92 90 92 81 85 107 111 107 98 100 118 134 129 102 81 82 89 79 63 60 60 58 73 86 79 70 95 87 68 71 114 124 122 116 116 117 116 112 112 112 111 113 113 112 100 88 85 90 85 88 87 79 72 69 62 54 51 47 49 60 62 56 54 45 48 55 60 50
127 108 104 102 101 100 120 121 135 144 146 130 113 65 85 82 81 84 84 87 88 78 80 110 106 100 112 123 139 124 100 92 99 100 85 66 67 56 56 56 65 72 67 55 63 90 79 117 132 129 126 125 126 122 126 130 134 133 119 122 123 123 120 110 103 95 91 91 88 80 70 66 61 58 55 50 54 59 57 56 56 46 49 59 47
121 119 116 115 115 123 137 153 153 150 121 117 111 81 83 84 76 85 86 87 91 87 90 92 108 113 120 131 129 121 97 95 85 70 75 72 65 66 61 58 57 59 55 54 55 48 55 42 54 111 126 134 131 121 110 125 144 160 150 143 134 129 121 124 115 111 109 89 82 79 78 80 83 75 70 65 65 57 54 60 55 50 49 55 56
123 102 105 113 126 143 151 148 147 134 119 114 102 89 90 93 101 91 90 97 97 108 118 106 102 113 124 132 118 92 87 80 58 86 78 77 76 72 68 58 61 59 58 58 65 59 53 64 60 66 74 57 46 57 52 73 68 134 154 159 164 173 128 100 123 118 127 123 118 123 119 118 117 114 109 106 90 82 70 64 56 61 54 57 59
114 126 123 133 148 151 155 144 132 122 105 86 111 73 91 99 110 102 88 91 92 80 98 108 114 115 104 83 108 106 102 117 108 95 91 86 76 75 72 71 68 67 65 67 66 72 73 75 72 79 68 54 42 56 27 33 51 68 80 46 187 187 197 159 122 129 151 147 164 165 166 155 149 148 146 139 124 109 101 90 81 72 70 59 56
114 123 137 154 146 139 152 148 134 126 117 98 97 107 102 98 76 117 117 94 106 87 68 91 93 98 96 108 356 91 107 98 102 102 93 81 77 77 73 77 75 71 74 68 64 65 85 82 83 88 102 116 45 55 12 25 350 18 39 70 90 284 277 272 172 183 191 206 208 207 197 186 168 159 159 164 179 136 115 109 89 80 70 79 70
126 136 148 159 137 138 160 152 134 124 106 92 92 118 126 110 88 70 109 131 124 119 89 90 95 92 110 98 94 74 85 94 105 110 84 81 71 62 62 62 67 69 69 68 67 68 73 72 76 77 92 110 129 94 59 52 46 33 28 63 104 138 231 257 269 279 257 236 211 217 217 208 199 194 179 180 188 161 148 132 111 104 86 67 96
142 154 149 151 138 141 156 145 129 110 107 101 110 111 111 122 106 75 107 128 137 130 107 101 100 94 83 78 44 63 67 71 87 83 75 73 64 61 62 64 66 63 65 69 72 72 66 57 65 72 72 65 54 43 41 32 22 42 47 33 80 61 70 348 257 241 230 246 260 250 223 207 207 218 213 197 193 193 167 168 166 141 106 97 66
148 156 145 145 127 139 146 137 132 123 114 106 113 109 103 98 113 102 73 77 130 109 110 106 98 88 73 53 65 67 69 68 74 73 70 78 91 81 72 66 71 69 69 70 71 64 57 47 45 39 49 56 54 47 40 31 26 32 51 89 91 124 176 195 300 307 265 226 217 249 274 247 223 221 239 226 210 208 197 177 178 172 172 189 210
140 145 136 144 149 150 141 142 133 125 122 123 122 136 136 116 111 115 111 96 76 97 102 103 86 79 75 51 49 87 101 102 80 78 77 77 87 82 79 79 78 76 69 69 68 61 56 50 54 38 28 36 40 43 43 36 32 34 35 44 78 90 108 81 332 288 273 273 256 260 265 321 301 271 248 245 225 220 213 204 198 205 189 199 207
146 139 126 156 148 146 143 143 128 126 130 138 141 136 130 122 114 108 123 119 94 96 103 105 104 78 73 80 60 61 94 98 81 68 65 68 78 77 80 79 76 79 84 87 82 72 60 50 54 49 27 20 23 28 37 42 42 39 38 38 60 73 69 68 36 271 28 18 23 27 347 262 243 244 253 251 238 236 232 218 215 220 220 203 209
155 139 141 166 151 157 150 149 138 113 112 120 130 134 127 125 127 95 27 118 112 135 138 114 53 141 133 102 64 64 69 69 65 51 60 68 75 81 80 81 85 87 89 87 87 86 66 46 39 39 34 28 27 22 23 39 47 47 38 39 63 71 57 59 53 78 106 80 70 74 47 34 14 291 246 246 275 319 308 260 224 225 227 214 210
154 154 173 192 155 150 145 145 136 135 128 133 134 137 147 146 148 133 118 33 99 68 63 37 132 122 94 100 71 74 360 36 43 39 37 66 70 72 78 85 90 88 82 87 93 86 75 55 45 37 32 32 31 25 20 35 47 48 46 36 56 58 59 61 69 81 87 84 85 79 76 80 81 50 359 333 330 341 334 352 293 248 248 240 224
163 161 163 167 163 156 148 155 150 145 147 148 148 150 146 143 132 136 132 129 122 129 324 228 169 143 94 75 167 119 94 39 58 27 20 55 68 72 86 90 87 87 83 85 83 73 68 61 52 40 35 34 32 27 28 28 27 30 34 33 51 62 62 56 70 80 75 80 79 76 73 74 75 98 136 186 285 296 342 327 350 8 278 253 248
164 160 158 164 157 151 160 157 153 147 152 155 157 165 165 156 154 150 160 149 148 111 318 115 184 332 144 123 69 74 197 169 118 44 358 51 54 72 82 88 88 82 78 74 72 66 66 61 52 46 38 36 39 35 39 37 34 28 30 44 54 56 64 76 69 71 76 77 78 74 65 59 55 53 55 57 59 68 67 57 35 37 35 31 348
147 146 151 146 155 159 157 158 155 152 163 161 149 143 156 163 180 164 158 175 145 135 131 34 59 47 29 203 168 170 159 187 92 97 31 49 52 66 72 79 85 91 91 79 78 65 51 60 48 47 38 37 36 45 41 39 45 38 31 41 47 45 40 78 79 75 74 71 71 68 65 60 56 50 48 52 56 58 61 59 57 53 52 68 58
124 126 144 146 139 154 164 164 156 158 153 147 156 168 169 170 156 153 137 123 139 141 155 164 115 46 24 321 74 103 145 139 121 113 105 3 25 42 62 76 83 83 74 68 56 47 38 49 50 48 42 34 37 43 48 42 46 51 47 46 43 39 48 39 59 74 73 72 71 69 66 64 60 55 52 51 49 50 51 52 53 52 52 55 55
126 137 146 148 142 146 147 148 152 148 150 176 167 161 148 122 140 151 142 171 165 137 169 182 169 186 14 37 70 86 74 58 129 151 134 133 95 63 66 68 65 54 55 48 37 32 34 37 51 48 43 36 35 40 47 50 46 37 41 44 43 52 53 53 47 53 70 72 71 70 67 64 62 59 58 56 54 52 51 50 50 50 51 49 49
108 137 145 156 162 155 154 150 152 156 167 154 157 166 166 155 162 163 169 163 173 166 160 189 162 105 62 39 68 73 61 66 93 95 138 126 118 133 122 80 68 42 28 34 34 29 30 39 55 52 44 36 30 37 45 53 47 39 49 36 40 48 53 53 52 54 59 71 73 73 72 69 66 61 59 58 57 54 53 52 52 52 52 53 52
92 122 146 163 156 148 152 163 165 160 160 160 157 166 173 172 178 173 167 164 169 166 182 122 109 130 148 166 119 101 69 74 62 101 59 58 148 157 154 141 125 16 8 16 21 19 27 38 49 45 44 36 27 37 45 50 51 51 53 52 54 47 47 53 50 50 57 67 74 76 75 72 68 65 60 57 54 52 50 49 48 49 51 53 55
79 77 107 131 156 159 155 164 168 168 160 160 165 173 180 180 167 156 164 164 171 168 130 145 152 132 156 172 163 164 172 173 172 156 133 118 107 129 115 60 123 116 21 9 32 21 35 38 47 41 43 49 37 46 48 46 50 50 49 47 50 59 53 52 51 47 47 53 66 73 75 74 73 70 67 64 61 57 53 48 45 44 44 47 50
61 85 72 77 111 138 147 152 170 173 177 175 168 169 167 158 156 163 168 166 154 154 151 159 166 153 181 174 201 184 165 158 156 143 141 148 140 144 133 117 73 35 65 16 41 48 38 41 25 41 20 64 59 57 52 43 45 47 41 42 43 49 63 63 58 55 52 50 52 65 72 73 73 72 70 68 67 65 63 58 50 44 43 44 46
123 119 69 74 95 116 150 162 172 190 184 170 165 159 157 161 166 163 165 171 176 165 165 175 173 171 191 187 181 168 169 117 121 115 89 122 130 125 41 82 126 133 134 52 89 336 90 82 99 21 19 46 67 61 56 53 36 41 42 35 45 47 53 56 59 60 58 55 53 52 64 69 71 69 66 62 60 62 64 65 62 53 51 44 39
170 155 172 126 102 118 138 139 130 135 152 152 146 153 158 165 164 167 175 177 160 171 168 166 179 181 154 154 180 177 144 131 129 129 134 129 137 139 131 66 77 130 322 32 338 138 207 70 157 151 58 48 52 71 64 55 50 37 41 42 40 48 52 54 55 52 60 59 57 56 49 54 64 68 67 65 61 53 46 43 44 61 59 53 45
157 157 114 114 116 111 113 107 111 115 115 119 120 121 134 136 153 140 128 156 162 151 147 155 163 168 174 168 154 151 139 135 144 148 154 150 146 149 137 126 75 37 14 325 325 88 205 287 229 195 182 207 89 98 73 64 50 42 53 47 48 49 50 53 58 58 56 60 57 53 50 49 49 57 65 66 63 60 51 46 41 40 46 52 50
126 117 95 108 123 109 103 108 118 113 105 108 111 112 116 116 95 104 107 109 141 152 169 169 173 174 170 136 138 165 141 144 152 156 152 150 145 151 149 143 143 153 350 61 341 297 197 154 299 226 210 205 209 135 127 92 76 69 71 61 61 43 53 55 57 62 64 62 58 53 45 41 39 40 49 55 48 49 52 51 45 41 37 39 48
127 112 93 78 95 108 103 102 102 112 108 107 112 113 110 108 120 126 129 129 128 159 165 175 172 157 144 161 166 158 153 142 135 135 135 144 153 156 161 158 157 137 148 172 232 222 251 209 160 217 197 209 199 169 148 132 123 122 117 88 72 85 44 63 59 55 57 61 59 55 45 35 30 24 25 27 34 40 41 49 53 52 39 35 43
127 116 102 91 80 86 102 92 95 98 112 114 116 119 113 102 117 110 136 133 118 114 144 152 151 148 138 147 156 163 149 155 160 153 150 152 153 164 158 134 146 146 157 161 214 207 196 229 226 172 210 228 195 196 172 132 141 144 162 177 131 124 84 82 73 74 61 52 55 55 50 41 28 17 16 14 8 7 18 25 25 37 49 39 32
122 122 110 101 101 88 93 101 91 93 90 97 114 113 120 119 115 114 105 117 116 105 99 130 146 144 148 155 170 162 152 159 151 147 141 150 156 149 137 142 154 148 150 136 145 232 177 195 233 245 196 203 192 164 143 115 170 165 193 234 243 217 130 112 97 87 89 74 61 53 46 40 21 7 10 4 349 337 326 325 313 325 29 61 38
124 125 117 113 117 114 103 104 102 95 91 75 84 96 93 93 107 103 88 99 96 101 92 73 105 121 134 147 173 168 150 142 148 156 157 159 156 157 153 144 117 123 134 141 153 185 205 200 204 214 209 180 169 184 221 166 187 198 200 221 244 281 311 102 78 33 32 77 80 70 45 18 1 6 15 4 350 335 323 317 308 294 275 218 237
135 119 110 115 118 121 115 105 110 109 105 90 73 87 87 83 69 98 97 93 106 95 101 83 77 103 113 135 155 160 155 156 161 155 155 156 150 140 138 141 134 147 142 121 128 128 195 241 223 227 190 151 184 199 195 196 212 222 207 222 216 236 268 241 89 42 1 349 34 57 34 358 339 16 14 1 349 342 331 322 317 310 288 257 236
135 129 115 116 115 117 109 106 101 101 100 104 102 104 109 99 83 79 109 106 101 93 92 99 87 94 104 119 128 136 156 153 159 161 157 150 156 153 167 165 161 166 177 111 141 137 186 217 235 158 174 198 207 171 195 189 221 212 221 224 217 221 257 274 26 38 34 329 354 26 359 336 11 11 13 10 3 355 348 336 330 328 324 282 244
98 117 131 124 120 108 102 101 105 106 112 109 106 112 117 119 117 101 101 122 125 122 111 120 119 122 105 114 119 128 133 134 149 145 150 156 158 172 178 175 173 178 186 154 129 132 167 207 207 174 180 177 206 193 201 196 184 184 208 229 233 242 246 233 138 104 211 215 199 210 354 19 17 37 34 23 12 7 359 358 357 357 359 358 311
117 90 103 116 107 107 104 99 100 107 103 106 99 99 114 128 125 121 112 97 91 120 139 145 136 126 131 112 110 123 131 126 142 148 157 158 175 185 180 185 178 184 189 183 165 133 177 165 213 194 183 177 214 121 130 156 167 178 219 311 147 188 182 171 165 188 208 202 178 140 72 62 55 50 43 37 35 33 36 33 33 37 38 36 29
122 114 91 94 97 110 124 134 129 128 130 124 117 116 113 105 121 128 124 118 116 122 146 158 147 136 136 135 148 136 134 123 134 144 159 169 185 180 194 184 186 175 179 194 188 145 144 182 197 189 156 179 166 170 168 162 160 145 98 141 168 172 136 50 183 176 120 114 122 87 70 68 65 63 63 67 65 59 54 50 49 49 49 48 43
116 119 129 112 127 120 130 135 128 141 143 139 138 145 135 122 107 104 112 122 137 142 155 186 163 156 149 151 157 154 150 149 166 161 163 172 165 181 186 189 174 159 173 182 171 165 165 184 174 160 199 173 186 211 194 180 167 166 118 93 85 54 142 100 53 68 91 97 74 63 61 72 83 81 80 78 72 67 63 61 58 55 52 49 46
148 145 145 138 137 138 147 141 130 134 132 130 125 127 137 136 135 133 125 115 120 132 171 274 355 5 80 117 149 159 167 160 157 175 170 165 175 183 188 177 165 163 172 180 171 164 174 154 168 198 173 141 174 211 131 174 155 183 183 149 79 46 53 122 114 76 63 78 74 81 79 88 100 97 88 73 68 67 68 67 66 65 63 60 57
135 157 174 168 160 139 152 136 126 132 130 134 128 125 134 151 144 142 145 136 126 116 62 10 37 46 55 44 352 245 201 183 174 174 167 176 163 176 170 158 159 160 173 165 160 159 157 175 178 186 195 165 168 24 55 118 164 247 212 172 180 163 147 40 59 139 82 93 93 83 88 99 100 93 88 79 64 56 65 70 66 70 67 64 59
94 173 181 153 153 145 116 113 128 127 147 172 164 158 149 162 164 165 159 145 148 153 159 193 273 240 156 161 188 201 228 248 236 197 195 176 164 168 188 163 162 169 158 169 173 162 163 173 202 26 166 195 196 161 161 175 196 206 172 137 125 93 137 113 75 38 69 120 105 97 86 91 104 78 79 73 56 58 58 61 66 63 61 57 51
57 54 103 136 158 179 174 119 93 164 176 176 184 180 193 167 168 161 151 157 161 169 179 205 260 243 229 198 193 213 232 230 209 219 219 222 221 191 171 168 169 166 171 172 182 189 176 187 208 185 198 220 204 197 193 209 182 99 139 163 146 150 116 89 21 309 30 137 126 92 81 44 101 92 70 85 57 48 76 72 63 73 66 58 50
40 37 54 43 20 12 138 147 338 331 4 38 30 9 353 352 4 165 171 177 170 171 179 192 229 250 251 215 200 209 212 215 205 209 223 241 263 322 194 193 180 171 168 178 205 183 187 211 190 182 213 224 230 197 212 187 181 184 181 173 142 150 170 162 186 173 257 173 122 117 97 30 115 113 96 96 99 103 88 75 49 59 59 50 37
35 50 54 53 50 32 31 37 40 3 4 20 24 47 50 8 2 356 347 284 211 195 191 196 224 232 251 260 242 212 215 211 203 198 209 215 226 245 207 183 213 258 158 165 181 179 195 202 198 215 202 224 229 188 209 177 192 179 174 159 168 175 170 190 181 169 122 220 140 119 124 82 109 137 136 167 154 137 58 40 27 40 46 15 344
27 44 36 46 43 38 44 46 36 26 30 17 15 10 6 5 0 1 6 17 332 301 284 261 249 244 243 254 271 240 230 212 210 209 206 201 181 184 179 158 157 169 159 115 118 175 170 192 209 219 208 209 216 227 202 193 137 163 155 170 188 189 182 177 155 145 133 45 121 119 154 143 338 162 123 183 174 141 93 46 352 333 318 300 294
29 32 33 40 40 39 35 37 41 40 37 16 25 24 22 18 7 352 303 295 263 253 252 250 254 257 252 255 268 273 245 205 213 205 206 210 187 169 175 182 186 167 152 162 158 156 172 186 190 219 221 170 207 243 102 146 174 173 150 205 175 164 173 164 138 115 78 221 186 137 132 173 358 214 117 134 241 174 199 246 298 303 301 293 286
25 27 30 37 35 39 35 38 52 47 31 24 29 28 27 22 5 4 359 349 324 302 283 255 251 252 256 250 251 266 292 281 232 218 210 213 201 204 196 201 196 195 193 191 190 176 169 167 177 210 191 166 205 197 156 166 218 193 206 205 178 153 111 113 92 67 76 33 54 120 204 146 247 207 141 342 50 278 241 243 273 286 286 292 297
37 36 39 44 40 39 35 38 49 46 32 29 30 29 26 19 19 31 16 358 331 316 303 291 274 264 255 239 233 246 253 261 256 215 217 202 204 217 222 222 216 210 220 304 347 320 242 191 194 201 196 194 200 198 197 183 156 111 92 87 85 113 122 108 115 6 73 18 19 121 122 169 25 56 334 273 258 280 212 221 256 277 282 288 338
39 37 40 46 42 45 41 40 44 41 32 25 30 30 27 20 23 16 11 1 349 329 308 304 303 291 266 239 239 246 244 245 236 206 195 173 200 216 230 231 236 229 242 202 125 128 233 242 242 236 231 221 206 188 179 162 157 149 133 119 145 150 132 135 102 144 158 340 1 31 105 138 40 11 313 294 330 295 284 223 208 262 286 345 348
31 28 36 48 45 45 43 38 37 42 31 27 33 31 28 22 23 20 3 357 340 338 326 324 323 315 303 301 281 257 254 254 251 218 189 176 197 209 213 224 224 229 244 207 147 47 83 94 91 89 93 102 111 124 140 151 157 161 147 165 166 147 147 150 149 167 111 334 118 229 104 122 51 78 314 309 314 236 257 251 256 314 338 343 333
15 12 24 40 39 39 39 40 36 39 27 18 23 28 32 27 21 10 9 0 347 339 330 318 317 312 309 306 294 281 274 273 273 229 196 189 207 209 216 217 228 232 236 179 172 159 137 100 87 98 70 82 107 118 120 131 136 102 125 134 139 162 152 151 124 123 131 233 201 185 144 150 144 126 189 311 278 262 260 283 285 306 315 327 332